Regional Weather Roundup
Issued by NWS

Home | Current Version | Previous Version | Graphics & Text | Print | Product List | Glossary Off
Versions: 1 2 3 4 5 6 7 8 9 10 11 12 13 14 15 16 17 18 19 20 21 22 23 24 25 26 27 28 29 30 31 32 33 34 35 36 37 38 39 40 41 42 43 44 45 46 47 48 49 50

000
ASUS43 KDTX 190910
RWRMI
MICHIGAN HOURLY REGIONAL WEATHER ROUNDUP
NATIONAL WEATHER SERVICE DETROIT/PONTIAC MI
400 AM EST THU JAN 19 2017

NOTE: "FAIR" INDICATES FEW OR NO CLOUDS BELOW 12,000 FEET WITH NO
SIGNIFICANT WEATHER AND/OR OBSTRUCTION TO VISIBILITY.

MIZ047>049-052>055-059>063-066>070-074>076-081>083-191000-
SOUTHEAST LOWER MICHIGAN

CITY           SKY/WX    TMP DP  RH WIND       PRES   REMARKS
ADRIAN         CLOUDY    32  32 100 W10       30.08S WCI  24
ALMA           CLOUDY    34  32  91 SW8       30.03S WCI  28
ANN ARBOR      CLOUDY    32  31  96 SW10      30.06R WCI  24
BAD AXE        CLOUDY    32  32  97 W7        30.02S WCI  26
CARO           CLOUDY    33  31  96 SW9       30.03R FOG     WCI  25
DETROIT CITY   CLOUDY    34  30  86 SW12      30.06R WCI  25
DETROIT        CLOUDY    34  31  88 SW14      30.08R WCI  25
FLINT          CLOUDY    33  30  88 W5        30.05R WCI  29
GROSSE ILE     CLOUDY    33  31  94 W10       30.07R WCI  24
HILLSDALE      CLOUDY    32  32 100 W7G16     30.05S FOG     WCI  26
HOWELL         CLOUDY    32  31  94 W10       30.04S WCI  24

CITY           SKY/WX    TMP DP  RH WIND       PRES   REMARKS
JACKSON        CLOUDY    33  30  88 W10       30.06R WCI  25
LAMBERTVILLE   CLOUDY    36  32  87 W9        30.08F WCI  29
LANSING        CLOUDY    33  29  85 SW10      30.05S WCI  25
LAPEER         CLOUDY    33  31  96 W7        30.05R WCI  26
MASON          CLOUDY    32  31  96 SW8       30.05R WCI  25
MONROE         CLOUDY    33  33  98 W13       30.07F WCI  24
MT. CLEMENS    CLOUDY    34  31  92 W9        30.05R WCI  26
PONTIAC        CLOUDY    32  29  88 W6        30.02S WCI  26
PORT HOPE        N/A     34  31  88 VRB5      29.99S WCI  30
PORT HURON     CLOUDY    34  32  93 SW3       30.06R
TRI CITIES     CLOUDY    34  32  92 SW9       30.03R FOG     WCI  27
MIDLAND        CLOUDY    35  32  90 SW5       30.01S WCI  31
TROY           CLOUDY    33  30  88 W9        30.07S WCI  25
SAGINAW HB     CLOUDY    34  30  86 SW8       30.04R WCI  27
$$
MIZ043>046-050>051-056>058-064>065-071>073-077>080-191000-
SOUTHWEST LOWER MICHIGAN

CITY           SKY/WX    TMP DP  RH WIND       PRES   REMARKS
BATTLE CREEK   CLOUDY    34  32  92 W10       30.05F WCI  26
BENTON HARBOR  CLOUDY    37  33  85 S6        30.07S WCI  32
BIG RAPIDS     CLOUDY    34  32  93 SW7       29.99S FOG     WCI  28
COLDWATER      CLOUDY    33  33 100 SW8       30.06F WCI  27
FREMONT        CLOUDY    35  34  96 SW12      30.01S WCI  26
HOLLAND        CLOUDY    38  35  89 SW14      30.04F WCI  30
GRAND RAPIDS   CLOUDY    35  31  85 SW12      30.04R WCI  27
IONIA          CLOUDY    33  32  95 SW13G18   30.04R WCI  24
KALAMAZOO      CLOUDY    35  30  82 SW6       30.07R WCI  30
LUDINGTON      CLOUDY    35  34  96 SW12      29.99S FOG     WCI  26
MARSHALL       CLOUDY    33  32  95 SW9       30.05F WCI  26
MOUNT PLEASANT CLOUDY    35  32  91 SW5       30.01S WCI  31
MUSKEGON       CLOUDY    37  33  85 SW15      30.03S WCI  28
SOUTH HAVEN    CLOUDY    37  34  91 SW10      30.05F WCI  29
$$
MIZ016>042-191000-
NORTHERN LOWER MICHIGAN

CITY           SKY/WX    TMP DP  RH WIND       PRES   REMARKS
ALPENA         CLOUDY    35  31  85 S6        29.97S WCI  30
BEAVER ISLAND  CLOUDY    36  33  92 SW9       29.93R WCI  29
BELLAIRE       CLOUDY    35  32  89 S3        29.96S
CADILLAC       CLOUDY    32  32  99 SW8       29.94S FOG     WCI  25
CHARLEVOIX     CLOUDY    36  34  94 S7        29.97S WCI  30
FRANKFORT      CLOUDY    37  35  93 S8        29.95F FOG     WCI  30
GAYLORD        CLOUDY    34  29  82 SW9       29.93S HAZE    WCI  27
GRAYLING       CLOUDY    34  32  93 SW6       29.95F FOG     WCI  29
HARBOR SPRINGS CLOUDY    35  32  90 SW7       29.94S WCI  29
HOUGHTON LAKE  CLOUDY    33  31  92 W8        29.96F WCI  26
MANISTEE       CLOUDY    35  33  92 SW8       29.97F FOG     WCI  29
OSCODA         CLOUDY    35  32  90 SW3       29.98S
PELLSTON       CLOUDY    36  31  82 SW8       29.94S WCI  30
ROGERS CITY    CLOUDY    35  32  88 CALM      29.97S
TRAVERSE CITY  CLOUDY    36  32  85 SW5       29.95F WCI  32
$$
MIZ007>008-015-191000-
EASTERN UPPER MICHIGAN

CITY           SKY/WX    TMP DP  RH WIND       PRES   REMARKS
KINROSS        CLOUDY    34  33  96 SW6       29.92R FOG     WCI  29
MACKINAC ISLAN CLOUDY    35  35 100 SW9       29.93R WCI  27
NEWBERRY       CLOUDY    32  31  97 SW7       29.90R FOG     WCI  25
S. S. MARIE    CLOUDY    35  33  92 S5        29.91R WCI  31
MUNISING         N/A     28  26  92 S8        29.89R WCI  20
$$
MIZ004>006-011>014-085-191000-
CENTRAL UPPER MICHIGAN

CITY           SKY/WX    TMP DP  RH WIND       PRES   REMARKS
MANISTIQUE     CLOUDY    29  29  98 CALM      29.90R FOG
ESCANABA       CLOUDY    28  27  96 W5        29.91R WCI  23
SAWYER-GWINN   FOG       19  18  95 CALM      29.86S VSB 1/2
$$
MIZ001>003-009>011-084-191000-
WESTERN UPPER MICHIGAN

CITY           SKY/WX    TMP DP  RH WIND       PRES   REMARKS
IRON MOUNTAIN  CLOUDY    21  17  84 CALM      29.86S FOG
HOUGHTON       CLOUDY    26  23  88 CALM      29.83R
COPPER HARBOR    N/A     29  26  89 SW6       29.84S WCI  23
IRONWOOD       CLOUDY    30  30 100 CALM      29.82  FOG
$$

ABBREVIATIONS USED IN REMARKS
   TC - TEMPERATURE IN CELSIUS
  WCI - WIND CHILL INDEX
   HX - HEAT INDEX
  VSB - VISIBILITY





USA.gov is the U.S. government's official web portal to all federal, state and local government web resources and services.